Preview of NWS' New Version of Forecast
This preview is not operational and should not be used for support decisions.

Regional Weather Roundup (RWR)

Issued by National Weather Service (NWS)

                            
000
ASUS45 KPSR 171910
RWRAZ 

ARIZONA HOURLY REGIONAL WEATHER ROUNDUP
NATIONAL WEATHER SERVICE PHOENIX AZ
1200 PM MST MON DEC 17 2018

NOTE: FAIR INDICATES FEW OR NO CLOUDS BELOW 12,000 FEET WITH NO
SIGNIFICANT WEATHER AND/OR OBSTRUCTIONS TO VISIBILITY.

AZZ001>003-036-172000-
NORTHWEST ARIZONA
  
CITY           SKY/WX    TMP DP  RH WIND       PRES   REMARKS
BULLHEAD CITY  CLOUDY    55  28  35 SW3       30.17F                  
KINGMAN        CLOUDY    55  18  23 SW7       30.19S                  
$$

AZZ004>008-015-016-018-172000-
NORTH CENTRAL ARIZONA
  
CITY           SKY/WX    TMP DP  RH WIND       PRES   REMARKS
GRAND CANYON   PTSUNNY   45  28  51 SW12      30.23F                  
WILLIAMS       PTSUNNY   46  28  49 SW12G20   30.21                   
PRESCOTT       PTSUNNY   55  29  36 W8        30.21F                  
FLAGSTAFF      CLOUDY    45  24  43 SW10      30.23F                  
PAYSON         SUNNY     52  28  40 SE5       30.22                   
PAGE           CLOUDY    42  24  49 N3        30.21F                  
$$

AZZ009>014-017-172000-
NORTHEAST ARIZONA
  
CITY           SKY/WX    TMP DP  RH WIND       PRES   REMARKS
WINSLOW        CLOUDY    46  20  35 CALM      30.20F                  
SAINT JOHNS    PTSUNNY   51  26  37 NW12      30.20F                  
WINDOW ROCK    CLOUDY    47  29  49 S7        30.22F                  
SHOW LOW       CLOUDY    45  36  70 S17       30.25F                  
$$

AZZ540-542>544-546-548-172000-
GREATER PHOENIX AREA
  
CITY           SKY/WX    TMP DP  RH WIND       PRES   REMARKS
PHOENIX        PTSUNNY   67  35  30 CALM      30.14F                  
GLENDALE       MOSUNNY   64  32  29 CALM      30.17F                  
LUKE AFB       MOSUNNY   65  32  29 E3        30.14F                  
DEER VALLEY    SUNNY     65  32  29 VRB6      30.16F                  
SCOTTSDALE     SUNNY     65  32  29 VRB3      30.17F                  
MESA-FALCON    SUNNY     65  28  24 W3        30.15F                  
MESA-GATEWAY   MOSUNNY   64  37  36 VRB3      30.16F                  
CHANDLER       SUNNY     66  37  34 CALM      30.18S                  
$$

AZZ539-553-172000-
SOUTHWEST MARICOPA COUNTY AND PINAL COUNTY
  
CITY           SKY/WX    TMP DP  RH WIND       PRES   REMARKS
CASA GRANDE    MOSUNNY   62  38  40 CALM      30.17F                  
GILA BEND      MOSUNNY   66  30  26 NE5       30.15F                  
$$

AZZ503-504-507>509-172000-
SOUTHEAST ARIZONA
  
CITY           SKY/WX    TMP DP  RH WIND       PRES   REMARKS
TUCSON         SUNNY     63  41  44 SE6       30.18F                  
DAVIS-MONTHAN  MOSUNNY   66  41  40 SW7       30.16F                  
RYAN FIELD     SUNNY     64  43  45 E5        30.18F                  
NOGALES        SUNNY     59  40  49 VRB3      30.19F                  
SIERRA VISTA   MOSUNNY   53  42  64 CALM      30.23F                  
DOUGLAS        MOSUNNY   53  41  63 CALM      30.21F                  
SAFFORD        PTSUNNY   54  46  74 E5        30.21F                  
$$

AZZ532-172000-
SOUTHWEST ARIZONA
  
CITY           SKY/WX    TMP DP  RH WIND       PRES   REMARKS
YUMA           CLOUDY    62  36  37 N3        30.15F                  
$$

CAZ041-043-047-048-061-525>527-560>570-172000-
SOUTHERN CALIFORNIA
  
CITY           SKY/WX    TMP DP  RH WIND       PRES   REMARKS
DOWNTOWN L.A.  MOSUNNY   65  51  60 CALM      30.20F                  
L.A. AIRPORT   PTSUNNY   63  53  70 SW7       30.21F                  
SAN DIEGO      PTSUNNY   64  52  64 W7        30.24S                  
BURBANK        CLOUDY    60  50  69 CALM      30.20F                  
ONTARIO        PTSUNNY   60  50  69 CALM      30.20F                  
RIVERSIDE      PTSUNNY   59  50  72 VRB5      30.21F HAZE             
PALM SPRINGS   PTSUNNY   72  27  18 S3        30.17                   
EL CENTRO NAS  CLOUDY    57  41  55 E3        30.16F                  
IMPERIAL       CLOUDY    56  42  59 E5        30.14F                  
NEEDLES        CLOUDY    53  29  39 CALM      30.16F                  
$$

NVZ020-UTZ003-172000-
SOUTHERN NEVADA-UTAH
  
CITY           SKY/WX    TMP DP  RH WIND       PRES   REMARKS
LAS VEGAS      PTSUNNY   55  26  32 CALM      30.13F                  
SALT LAKE CITY CLOUDY    37  30  75 SW3       30.15F                  
$$

NMZ009-TXZ055-172000-
NEW MEXICO-WEST TEXAS
  
CITY           SKY/WX    TMP DP  RH WIND       PRES   REMARKS
ALBUQUERQUE    CLOUDY    45  20  36 SW5       30.24F                  
EL PASO        MOSUNNY   56  37  49 N10       30.19F                  
$$


........................KEY........................
SKY/WX - SKY CONDITION/WEATHER
TMP    - TEMPERATURE IN FAHRENHEIT
DP     - DEW POINT IN FAHRENHEIT
RH     - RELATIVE HUMIDITY IN PERCENT
WIND   - DIRECTION AND SPEED IN MILES PER HOUR (MPH)
VRB    - VARIABLE WIND DIRECTION
PRES   - MEAN SEA LEVEL PRESSURE IN INCHES OF MERCURY
         F - FALLING PRESSURE   R - RISING PRESSURE
         S - STEADY PRESSURE
VSB    - VISIBILITY IN MILES
HX     - HEAT INDEX IN FAHRENHEIT
WCI    - WIND CHILL INDEX IN FAHRENHEIT
TC     - TEMPERATURE IN CELSIUS WHICH IS ALSO KNOWN AS
         TEMPERATURE IN CENTIGRADE
AFB    - AIR FORCE BASE
         LUKE AFB IS LUKE AIR FORCE BASE
         DAVIS-MONTHAN IS DAVIS-MONTHAN AIR FORCE BASE
NAS    - NAVAL AIR STATION
         EL CENTRO NAS IS EL CENTRO NAVAL AIR STATION
N/A    - NOT AVAILABLE